TimeMST,TemperatureF,Dew PointF,Humidity,Sea Level PressureIn,VisibilityMPH,Wind Direction,Wind SpeedMPH,Gust SpeedMPH,PrecipitationIn,Events,Conditions,WindDirDegrees,DateUTC
12:53 AM,19.9,17.1,89,30.14,10.0,SE,4.6,-,N/A,,Overcast,140,2012-12-31 07:53:00
1:53 AM,19.0,16.0,88,30.14,10.0,SSE,5.8,-,N/A,,Overcast,150,2012-12-31 08:53:00
2:53 AM,18.0,15.1,88,30.17,10.0,SSE,4.6,-,N/A,,Overcast,160,2012-12-31 09:53:00
3:53 AM,17.1,14.0,88,30.17,10.0,SSE,5.8,-,N/A,,Mostly Cloudy,160,2012-12-31 10:53:00
4:39 AM,17.6,15.8,93,30.05,1.5,SW,4.6,-,N/A,,Clear,230,2012-12-31 11:39:00
4:42 AM,17.6,15.8,93,30.05,0.5,SW,5.8,-,N/A,Fog,Light Freezing Fog,230,2012-12-31 11:42:00
4:50 AM,12.2,12.2,100,30.05,0.2,SW,5.8,-,N/A,Fog,Light Freezing Fog,230,2012-12-31 11:50:00
4:53 AM,12.9,10.9,92,30.17,0.2,SW,5.8,-,N/A,Fog,Light Freezing Fog,230,2012-12-31 11:53:00
5:31 AM,8.6,6.8,92,30.04,1.0,West,4.6,-,N/A,,Mist,280,2012-12-31 12:31:00
5:39 AM,10.4,8.6,92,30.05,0.2,West,4.6,-,N/A,Fog,Light Freezing Fog,280,2012-12-31 12:39:00
5:53 AM,8.1,6.1,92,30.18,0.2,West,4.6,-,N/A,Fog,Light Freezing Fog,270,2012-12-31 12:53:00
6:28 AM,6.8,3.2,85,30.05,1.0,SW,5.8,-,N/A,,Mist,220,2012-12-31 13:28:00
6:30 AM,8.6,3.2,79,30.05,2.5,SW,6.9,-,N/A,,Scattered Clouds,220,2012-12-31 13:30:00
6:32 AM,8.6,3.2,79,30.05,5.0,SW,6.9,-,N/A,,Mostly Cloudy,220,2012-12-31 13:32:00
6:38 AM,8.6,5.0,85,30.05,1.8,SW,6.9,-,N/A,,Mostly Cloudy,220,2012-12-31 13:38:00
6:53 AM,7.0,3.9,87,30.18,1.2,SSW,6.9,-,N/A,,Overcast,200,2012-12-31 13:53:00
6:58 AM,6.8,3.2,85,30.04,3.0,South,8.1,-,N/A,,Overcast,190,2012-12-31 13:58:00
7:15 AM,6.8,3.2,85,30.04,10.0,SSW,6.9,-,N/A,,Scattered Clouds,200,2012-12-31 14:15:00
7:53 AM,5.0,1.9,87,30.19,1.5,SSW,3.5,-,N/A,,Clear,210,2012-12-31 14:53:00
8:03 AM,6.8,3.2,85,30.05,4.0,WSW,3.5,-,N/A,,Clear,240,2012-12-31 15:03:00
8:38 AM,6.8,3.2,85,30.05,1.8,SSW,5.8,-,N/A,,Clear,200,2012-12-31 15:38:00
8:53 AM,8.1,3.9,83,30.19,8.0,SSW,4.6,-,N/A,,Clear,200,2012-12-31 15:53:00
9:53 AM,10.9,8.1,88,30.19,10.0,South,5.8,-,N/A,,Clear,180,2012-12-31 16:53:00
10:53 AM,15.1,12.0,88,30.18,10.0,SSW,6.9,-,N/A,,Clear,200,2012-12-31 17:53:00
11:53 AM,17.1,12.0,81,30.16,10.0,Calm,Calm,-,N/A,,Clear,0,2012-12-31 18:53:00
12:53 PM,19.0,12.9,77,30.13,10.0,SW,5.8,-,N/A,,Clear,220,2012-12-31 19:53:00
1:53 PM,19.9,12.0,71,30.12,10.0,South,6.9,-,N/A,,Clear,180,2012-12-31 20:53:00
2:53 PM,21.9,12.9,68,30.12,10.0,South,3.5,-,N/A,,Clear,180,2012-12-31 21:53:00
3:53 PM,19.0,10.9,71,30.13,10.0,SSW,4.6,-,N/A,,Clear,210,2012-12-31 22:53:00
4:53 PM,19.9,12.9,74,30.14,10.0,SSE,4.6,-,N/A,,Overcast,160,2012-12-31 23:53:00
6:53 PM,21.0,14.0,74,30.16,10.0,South,4.6,-,N/A,,Overcast,180,2013-01-01 01:53:00
7:53 PM,21.0,14.0,74,30.16,10.0,South,5.8,-,N/A,,Overcast,190,2013-01-01 02:53:00
8:53 PM,21.0,14.0,74,30.15,10.0,South,3.5,-,N/A,,Overcast,170,2013-01-01 03:53:00
10:53 PM,21.0,15.1,78,30.18,10.0,Calm,Calm,-,N/A,,Overcast,0,2013-01-01 05:53:00
11:53 PM,21.0,15.1,78,30.17,10.0,SSE,3.5,-,N/A,,Overcast,160,2013-01-01 06:53:00